Location: Roah Hook
(42.4840°N, 73.7893°W)
Time: 08:55:40
(UTC+00:00)

ARIANE 6 FM1 Upper Stage - Pass Details

Date: 16 October 2024
Orbit: 558 x 596 km, 62.0° (Epoch: 11 November)

Event Time Altitude Azimuth Distance (km) Brightness Sun altitude
Rises 00:59:30 0° 325° (NW) 2,831 7.0 -31.4°
Reaches altitude 10° 01:01:48 10° 330° (NNW) 1,932 5.9 -31.8°
Enters shadow 01:03:01 18° 335° (NNW) 1,472 5.2 -32.0°
